Brainerd, MN

11:22 PM CDT on July 25, 2017 (GMT -0500)
Brainerd-Crow Wing County Regional

Weather History for KBRD - May, 2013

Change the Weather History Date:

Monday, May 6, 2013

  Actual Average Record
Temperature  
Mean Temperature 53 °F -  
Max Temperature 73 °F 65 °F 90 °F (2016)
Min Temperature 33 °F 37 °F 22 °F (1976)
Degree Days  
Heating Degree Days 12    
Growing Degree Days 3 (Base 50)    
Moisture  
Dew Point 39 °F    
Average Humidity 65    
Maximum Humidity 93    
Minimum Humidity 36    
Precipitation  
Precipitation 0.00 in - - ()
Sea Level Pressure  
Sea Level Pressure 30.10 in    
Wind  
Wind Speed 1 mph (West)    
Max Wind Speed 7 mph    
Max Gust Speed -    
Visibility 8 miles    
Events      
Averages and records for this station are not official NWS values.
T = Trace of Precipitation, MM = Missing Value Source: NWS Daily Summary

Daily Weather History Graph

Daily Weather History Graph

Search for Another Location

Airport or City:

Trip Planner

Search our weather history database for the weather conditions in past years. The results will help you decide how hot, cold, wet, or windy it might be!

Date:

Astronomy

May. 06, 2013 Rise Set
Actual Time 5:54 AM CDT 8:32 PM CDT
Civil Twilight 5:20 AM CDT 9:06 PM CDT
Nautical Twilight 4:37 AM CDT 9:50 PM CDT
Astronomical Twilight 3:47 AM CDT 10:40 PM CDT
Moon 4:08 AM CDT (5/6) 5:23 PM CDT (5/6)
Length of Visible Light 15h 46m
Length of Day
14h 37m
Waning Crescent, 11% of the Moon is Illuminated
May 6
Waning Crescent
May 9
New
May 17
First Quarter
May 24
Full
May 31
Last Quarter

Hourly Weather History & Observations

Time (CDT) Temp. Dew Point Humidity Pressure Visibility Wind Dir Wind Speed Gust Speed Precip Events Conditions
12:53 AM 42.1 °F 37.9 °F 85% 30.14 in 10.0 mi Calm Calm - N/A   Clear
1:53 AM 41.0 °F 36.0 °F 82% 30.14 in - Calm Calm - N/A   Clear
2:53 AM 39.9 °F 36.0 °F 86% 30.13 in 10.0 mi Calm Calm - N/A   Clear
3:53 AM 36.0 °F 32.0 °F 86% 30.14 in - Calm Calm - N/A   Clear
4:28 AM 37.4 °F 33.8 °F 87% 30.12 in 0.8 mi Calm Calm - N/A   Clear
4:41 AM 35.6 °F 33.8 °F 93% 30.12 in 2.0 mi Calm Calm - N/A   Clear
4:53 AM 34.0 °F 30.9 °F 89% 30.14 in 1.5 mi Calm Calm - N/A   Clear
4:56 AM 33.8 °F 30.2 °F 87% 30.12 in 3.0 mi Calm Calm - N/A   Clear
5:53 AM 34.0 °F 32.0 °F 92% 30.15 in 1.2 mi Calm Calm - N/A   Clear
6:02 AM 35.6 °F 30.2 °F 81% 30.12 in 3.0 mi Calm Calm - N/A   Haze
6:53 AM 37.0 °F 33.1 °F 86% 30.16 in 10.0 mi Calm Calm - N/A   Clear
7:53 AM 44.1 °F 39.0 °F 82% 30.16 in 10.0 mi Calm Calm - N/A   Scattered Clouds
8:53 AM 52.0 °F 39.9 °F 63% 30.15 in 10.0 mi Calm Calm - N/A   Clear
9:53 AM 59.0 °F 42.1 °F 53% 30.14 in 10.0 mi Calm Calm - N/A   Clear
10:53 AM 63.0 °F 43.0 °F 48% 30.12 in 10.0 mi Calm Calm - N/A   Clear
11:53 AM 66.9 °F 44.1 °F 44% 30.12 in 10.0 mi Calm Calm - N/A   Clear
12:53 PM 66.9 °F 45.0 °F 45% 30.10 in 10.0 mi Variable 3.5 mph - N/A   Overcast
1:53 PM 69.1 °F 45.0 °F 42% 30.09 in 10.0 mi Calm Calm - N/A   Overcast
2:53 PM 72.0 °F 44.1 °F 37% 30.08 in 10.0 mi WNW 6.9 mph - N/A   Mostly Cloudy
3:53 PM 71.1 °F 44.1 °F 38% 30.06 in 10.0 mi Calm Calm - N/A   Mostly Cloudy
4:53 PM 73.0 °F 45.0 °F 37% 30.05 in 10.0 mi Variable 6.9 mph - N/A   Scattered Clouds
5:53 PM 71.1 °F 44.1 °F 38% 30.04 in 10.0 mi SSW 3.5 mph - N/A   Clear
6:53 PM 71.1 °F 43.0 °F 36% 30.04 in 10.0 mi Calm Calm - N/A   Clear
7:53 PM 69.1 °F 44.1 °F 40% 30.03 in 10.0 mi West 5.8 mph - N/A   Clear
8:53 PM 63.0 °F 44.1 °F 50% 30.04 in 10.0 mi WNW 3.5 mph - N/A   Clear
9:53 PM 54.0 °F 44.1 °F 69% 30.05 in 10.0 mi Calm Calm - N/A   Clear
10:53 PM 53.1 °F 43.0 °F 69% 30.06 in 6.0 mi Calm Calm - N/A   Haze
11:53 PM 50.0 °F 42.1 °F 74% 30.06 in 9.0 mi Calm Calm - N/A   Clear